YAOGAN 16A

导读

YAOGAN 16A(遥感十六号A星)是中国自主研制的遥感卫星,于北京时间2012年11月25日8时成功发射。该卫星属于中国遥感卫星系列,主要用于国土普查、地理测绘、灾害监测等领域,为经济建设、资源开发和防灾减灾提供精准空间信息支撑,是中国对地观测体系的重要组成,推动了我国航天遥感应用能力的稳步提升。

Basic Information
目录编号:
39011
目录名称:
YAOGAN 16A
国际标识:
2012-066A
轨道中心:
EARTH
卫星名称:
YAOGAN 16A
卫星全名:
--
卫星状态:
在轨 (已飞行4992 天)
发射日期:
2012-11-25 UTC
国别 :
中国 (CN)
星等 :
--
Orbit Information
数据来源 国际轨道数据 AOE轨道数据
星历时间 2026-07-27T17:17:49+0800
14小时前
查看轨道信息
2026-07-27T18:00:00+0800
13小时前
查看轨道信息
半长轴 7466.926km 7466.927km
偏心率 0.0438791 0.0438903
轨道倾角 63.351° 63.352°
近地点辐角 27.437° 27.438°
升交点赤经 185.969° 185.893°
平近点角 334.910° 116.814°
近地点 761.147km 761.064km
远地点 1416.431km 1416.516km
周期 107.022分钟 107.022分钟
每日圈数 13.455196 13.455193
Detailed Information
使用方式:
暂无
2D Orbit Map
3D Orbit Map
Orbit Altitude Analysis Chart
Orbit Inclination Analysis Chart
Orbit Comprehensive Analysis Chart
View Comprehensive Chart